Hourly Data Report for May 16, 2012

All times are specified in Local Standard Time (LST). Add 1 hour to adjust for Daylight Saving Time where and when it is observed.

DEER LAKE A
NEWFOUNDLAND

49°12'33.000" N
57°23'40.000" W
21.90 m
8401502
71809
YDF

Download Data

Hourly Data (May 2012)
Hourly Data Report for May 16, 2012
Temp Definition
°C
Dew Point Temp Definition
°C
Rel Hum Definition
%
Wind Dir Definition
10's deg

Wind Spd Definition
km/h
Visibility Definition
km
Stn Press Definition
kPa
Hmdx Definition


Wind Chill Definition


Weather Definition


TIME
00:30 13.3 12.7 96 21 8 10.0 102.18     LegendNANA
01:30 12.8 12.3 97   0 10.0 102.14     Rain Showers
02:30 12.5 12.4 99   0 10.0 102.14     Rain Showers
03:30 11.8 11.8 100   0 10.0 102.17     Rain Showers
04:30 12.0 12.0 100 2 5 10.0 102.14     Fog
05:30 11.8 11.8 100   0 10.0 102.17     Fog
06:30 12.9 12.6 98   0 10.0 102.15     LegendNANA
07:30 15.0 12.9 87   0 10.0 102.15     LegendNANA
08:30 16.6 13.4 81   0 10.0 102.13     Cloudy
09:30 18.9 12.5 66 21 13 10.0 102.09     LegendNANA
10:30 19.2 12.6 65 21 13 10.0 102.06     LegendNANA
11:30 20.3 12.4 60 22 8 10.0 102.00     Mostly Cloudy
12:30 20.4 13.2 63 24 10 10.0 101.96     Rain Showers
13:30 21.0 10.9 52 20 17 10.0 101.90     LegendNANA
14:30 22.5 9.5 43 22 28 10.0 101.83     Cloudy
15:30 22.3 8.2 40 20 29 10.0 101.82     LegendNANA
16:30 21.2 8.3 43 21 31 10.0 101.81     LegendNANA
17:30 20.2 9.0 48 20 35 10.0 101.80     Cloudy
18:30 18.9 10.6 58 20 20 10.0 101.79     LegendNANA
19:30 17.9 11.1 64 20 20 10.0 101.78     LegendNANA
20:30 16.6 11.2 70 20 18 10.0 101.77     Cloudy
21:30 16.2 11.4 73 21 15 10.0 101.72     LegendNANA
22:30 15.7 11.3 75 19 14 10.0 101.63     LegendNANA
23:30 14.4 12.6 89   0 10.0 101.57     Cloudy

Notes on Data Quality.

Legend

  • E = Estimated
  • M = Missing
  • NA = Not Available
Date modified: